Location: ?????????
(41.1143°N, 22.7905°E)
Time: 17:31:21
(UTC+00:00)

Cosmos 2333 Rocket - Pass Details

Date: 13 December 2025
Orbit: 838 x 865 km, 70.8° (Epoch: 22 January)

Event Time Altitude Azimuth Distance (km) Brightness Sun altitude
Rises 16:41:14 0° 167° (SSE) 3,408 5.4 -18.3°
Reaches altitude 10° 16:44:05 10° 154° (SSE) 2,481 4.5 -18.8°
Enters shadow 16:47:23 23° 121° (ESE) 1,755 3.5 -19.4°
